Location: Bois Neuf
(42.7667°N, 0.6333°E)
Time: 17:58:26
(UTC+00:00)

CBERS-1 - Pass Details

Date: 07 June 2020
Orbit: 770 x 776 km, 98.6° (Epoch: 13 July)

Event Time Altitude Azimuth Distance (km) Brightness Sun altitude
Rises 02:16:02 0° 13° (NNE) 3,260 8.6 -17.0°
Reaches altitude 10° 02:18:21 10° 13° (NNE) 2,329 7.6 -16.7°
Maximum altitude 02:23:30 86° 284° (WNW) 783 4.0 -16.2°
Enters shadow 02:26:40 24° 198° (SSW) 1,560 5.0 -15.9°
